• In Deutschland
  • Länderverzeichnis
  • Für 7 Tage
  • Wassertemperatur
  • Satellitenkarten
  • Wetterkarte
  • Widgets
  • user-avatar
    Anmelden

    Stündliche Wetter Osterholz-Scharmbeck

    Heute, 22 Mai, Dienstag

    Zeit Temperatur Niederschläge Wind Luftdruck Luftfeuchtigkeit
    00:00 +13°C° 0 mm 4 m/S 760 mmHg 80%
    01:00 +12°C° 0 mm 4 m/S 760 mmHg 82%
    02:00 +12°C° 0 mm 4 m/S 759 mmHg 84%
    03:00 +11°C° 0 mm 4 m/S 759 mmHg 85%
    04:00 +11°C° 0 mm 3 m/S 759 mmHg 86%
    05:00 +12°C° 0 mm 4 m/S 759 mmHg 84%
    06:00 +13°C° 0 mm 4 m/S 759 mmHg 81%
    07:00 +14°C° 0 mm 4 m/S 759 mmHg 79%
    08:00 +16°C° 0 mm 5 m/S 759 mmHg 74%
    09:00 +19°C° 0 mm 5 m/S 759 mmHg 69%
    10:00 +20°C° 0 mm 5 m/S 759 mmHg 64%
    11:00 +21°C° 0 mm 5 m/S 759 mmHg 61%
    12:00 +22°C° 0 mm 4 m/S 759 mmHg 58%
    13:00 +23°C° 0 mm 4 m/S 759 mmHg 55%
    14:00 +23°C° 0 mm 4 m/S 759 mmHg 56%
    15:00 +24°C° 0 mm 3 m/S 759 mmHg 58%
    16:00 +24°C° 0 mm 3 m/S 759 mmHg 59%
    17:00 +22°C° 0,1 mm 3 m/S 759 mmHg 64%
    18:00 +21°C° 0,1 mm 3 m/S 759 mmHg 68%
    19:00 +20°C° 0,1 mm 3 m/S 760 mmHg 73%
    20:00 +19°C° 0 mm 4 m/S 760 mmHg 75%
    21:00 +17°C° 0 mm 4 m/S 761 mmHg 76%
    22:00 +15°C° 0 mm 4 m/S 761 mmHg 78%
    23:00 +14°C° 0 mm 4 m/S 761 mmHg 81%

    Morgen, 23 Mai, Mittwoch

    Zeit Temperatur Niederschläge Wind Luftdruck Luftfeuchtigkeit
    00:00 +14°C° 0 mm 3 m/S 762 mmHg 84%
    01:00 +13°C° 0 mm 3 m/S 762 mmHg 87%
    02:00 +12°C° 0 mm 3 m/S 762 mmHg 88%
    03:00 +12°C° 0 mm 3 m/S 762 mmHg 89%
    04:00 +12°C° 0 mm 3 m/S 763 mmHg 90%
    05:00 +12°C° 0 mm 3 m/S 763 mmHg 87%
    06:00 +13°C° 0 mm 4 m/S 764 mmHg 83%
    07:00 +14°C° 0 mm 4 m/S 764 mmHg 80%
    08:00 +15°C° 0 mm 4 m/S 764 mmHg 74%
    09:00 +18°C° 0 mm 4 m/S 765 mmHg 69%
    10:00 +20°C° 0 mm 4 m/S 765 mmHg 64%
    11:00 +20°C° 0 mm 4 m/S 765 mmHg 61%
    12:00 +21°C° 0 mm 4 m/S 765 mmHg 57%
    13:00 +22°C° 0 mm 5 m/S 765 mmHg 54%
    14:00 +22°C° 0 mm 5 m/S 765 mmHg 55%
    15:00 +22°C° 0 mm 5 m/S 765 mmHg 56%
    16:00 +22°C° 0 mm 5 m/S 765 mmHg 57%
    17:00 +21°C° 0 mm 5 m/S 765 mmHg 62%
    18:00 +20°C° 0 mm 5 m/S 765 mmHg 66%
    19:00 +19°C° 0 mm 5 m/S 765 mmHg 71%
    20:00 +18°C° 0 mm 4 m/S 766 mmHg 72%
    21:00 +17°C° 0 mm 4 m/S 766 mmHg 74%
    22:00 +14°C° 0 mm 4 m/S 767 mmHg 75%
    23:00 +13°C° 0 mm 4 m/S 767 mmHg 77%

    übermorgen, 24 Mai, Donnerstag

    Zeit Temperatur Niederschläge Wind Luftdruck Luftfeuchtigkeit
    00:00 +12°C° 0 mm 4 m/S 767 mmHg 79%
    01:00 +11°C° 0 mm 4 m/S 767 mmHg 81%
    02:00 +11°C° 0 mm 4 m/S 767 mmHg 80%
    03:00 +11°C° 0 mm 4 m/S 767 mmHg 79%
    04:00 +10°C° 0 mm 4 m/S 767 mmHg 78%
    05:00 +11°C° 0 mm 4 m/S 767 mmHg 77%
    06:00 +13°C° 0 mm 4 m/S 767 mmHg 75%
    07:00 +14°C° 0 mm 5 m/S 767 mmHg 74%
    08:00 +16°C° 0 mm 5 m/S 767 mmHg 69%
    09:00 +19°C° 0 mm 5 m/S 767 mmHg 64%
    10:00 +21°C° 0 mm 6 m/S 767 mmHg 59%
    11:00 +22°C° 0 mm 6 m/S 766 mmHg 56%
    12:00 +22°C° 0 mm 6 m/S 766 mmHg 53%
    13:00 +23°C° 0 mm 6 m/S 766 mmHg 50%
    14:00 +23°C° 0 mm 6 m/S 766 mmHg 52%
    15:00 +23°C° 0 mm 6 m/S 765 mmHg 54%
    16:00 +23°C° 0 mm 6 m/S 765 mmHg 55%
    17:00 +22°C° 0 mm 5 m/S 765 mmHg 60%
    18:00 +22°C° 0 mm 5 m/S 765 mmHg 65%
    19:00 +21°C° 0 mm 5 m/S 765 mmHg 70%
    20:00 +20°C° 0 mm 5 m/S 765 mmHg 71%
    21:00 +19°C° 0 mm 5 m/S 765 mmHg 72%
    22:00 +17°C° 0 mm 6 m/S 765 mmHg 73%
    23:00 +16°C° 0 mm 6 m/S 765 mmHg 72%

    25 Mai, Freitag

    Zeit Temperatur Niederschläge Wind Luftdruck Luftfeuchtigkeit
    00:00 +15°C° 0 mm 6 m/S 765 mmHg 72%
    01:00 +15°C° 0 mm 5 m/S 765 mmHg 71%
    02:00 +14°C° 0 mm 5 m/S 765 mmHg 73%
    03:00 +14°C° 0 mm 5 m/S 765 mmHg 75%
    04:00 +13°C° 0 mm 5 m/S 764 mmHg 77%
    05:00 +14°C° 0 mm 5 m/S 764 mmHg 78%
    06:00 +15°C° 0 mm 5 m/S 764 mmHg 79%
    07:00 +15°C° 0 mm 5 m/S 764 mmHg 80%
    08:00 +17°C° 0 mm 5 m/S 764 mmHg 76%
    09:00 +20°C° 0 mm 5 m/S 764 mmHg 73%
    10:00 +22°C° 0 mm 6 m/S 764 mmHg 69%
    11:00 +22°C° 0 mm 5 m/S 764 mmHg 66%
    12:00 +23°C° 0 mm 5 m/S 764 mmHg 63%
    13:00 +25°C° 0 mm 5 m/S 764 mmHg 60%
    14:00 +26°C° 0 mm 5 m/S 763 mmHg 60%
    15:00 +26°C° 0 mm 5 m/S 763 mmHg 61%
    16:00 +26°C° 0 mm 5 m/S 763 mmHg 61%
    17:00 +25°C° 0,3 mm 4 m/S 763 mmHg 66%
    18:00 +23°C° 0,3 mm 4 m/S 763 mmHg 71%
    19:00 +22°C° 0,3 mm 3 m/S 763 mmHg 76%
    20:00 +21°C° 0 mm 3 m/S 763 mmHg 79%
    21:00 +20°C° 0 mm 3 m/S 763 mmHg 81%
    22:00 +19°C° 0 mm 4 m/S 763 mmHg 84%
    23:00 +18°C° 0 mm 3 m/S 763 mmHg 85%

    26 Mai, Samstag

    Zeit Temperatur Niederschläge Wind Luftdruck Luftfeuchtigkeit
    00:00 +18°C° 0 mm 3 m/S 763 mmHg 87%
    01:00 +17°C° 0 mm 3 m/S 763 mmHg 88%
    02:00 +17°C° 0,1 mm 3 m/S 763 mmHg 89%
    03:00 +17°C° 0,1 mm 3 m/S 763 mmHg 90%
    04:00 +17°C° 0,1 mm 3 m/S 763 mmHg 91%
    05:00 +18°C° 0,1 mm 3 m/S 763 mmHg 89%
    06:00 +19°C° 0,1 mm 4 m/S 764 mmHg 87%
    07:00 +20°C° 0,1 mm 4 m/S 764 mmHg 85%
    08:00 +21°C° 0 mm 4 m/S 764 mmHg 80%
    09:00 +23°C° 0 mm 4 m/S 764 mmHg 75%
    10:00 +25°C° 0 mm 4 m/S 764 mmHg 71%
    11:00 +26°C° 0,3 mm 4 m/S 764 mmHg 68%
    12:00 +27°C° 0,3 mm 4 m/S 764 mmHg 66%
    13:00 +28°C° 0,3 mm 4 m/S 764 mmHg 63%
    14:00 +28°C° 0,7 mm 4 m/S 764 mmHg 64%
    15:00 +28°C° 0,7 mm 4 m/S 764 mmHg 65%
    16:00 +28°C° 0,7 mm 3 m/S 764 mmHg 65%
    17:00 +27°C° 0,7 mm 3 m/S 764 mmHg 69%
    18:00 +26°C° 0,7 mm 3 m/S 764 mmHg 73%
    19:00 +24°C° 0,7 mm 3 m/S 764 mmHg 77%
    20:00 +22°C° 0,1 mm 3 m/S 764 mmHg 78%
    21:00 +21°C° 0,1 mm 4 m/S 765 mmHg 79%
    22:00 +20°C° 0,1 mm 4 m/S 765 mmHg 81%
    23:00 +19°C° 0 mm 4 m/S 765 mmHg 82%

    27 Mai, Sonntag

    Zeit Temperatur Niederschläge Wind Luftdruck Luftfeuchtigkeit
    00:00 +19°C° 0 mm 4 m/S 765 mmHg 83%
    01:00 +18°C° 0 mm 4 m/S 765 mmHg 85%
    02:00 +17°C° 0 mm 4 m/S 766 mmHg 85%
    03:00 +17°C° 0 mm 4 m/S 766 mmHg 86%
    04:00 +15°C° 0 mm 4 m/S 766 mmHg 87%
    05:00 +17°C° 0 mm 4 m/S 766 mmHg 84%
    06:00 +18°C° 0 mm 4 m/S 766 mmHg 82%
    07:00 +19°C° 0 mm 4 m/S 766 mmHg 79%
    08:00 +21°C° 0 mm 5 m/S 766 mmHg 73%
    09:00 +23°C° 0 mm 5 m/S 766 mmHg 67%
    10:00 +25°C° 0 mm 5 m/S 766 mmHg 61%
    11:00 +26°C° 0 mm 5 m/S 766 mmHg 58%
    12:00 +27°C° 0 mm 5 m/S 766 mmHg 56%
    13:00 +27°C° 0 mm 5 m/S 766 mmHg 53%
    14:00 +27°C° 0 mm 5 m/S 766 mmHg 54%
    15:00 +27°C° 0 mm 5 m/S 766 mmHg 55%
    16:00 +27°C° 0 mm 5 m/S 765 mmHg 56%
    17:00 +26°C° 0 mm 5 m/S 765 mmHg 61%
    18:00 +25°C° 0 mm 4 m/S 765 mmHg 66%
    19:00 +23°C° 0 mm 4 m/S 765 mmHg 70%
    20:00 +22°C° 0 mm 4 m/S 766 mmHg 72%
    21:00 +21°C° 0 mm 5 m/S 766 mmHg 74%
    22:00 +19°C° 0 mm 5 m/S 766 mmHg 75%
    23:00 +19°C° 0 mm 5 m/S 766 mmHg 77%
    Mehr zeigen